Location: Newark
(45.5000°N, 11.4167°E)
Time: 21:59:13
(UTC+00:00)

A-11 Canister half - Pass Details

Date: 26 August 2019
Orbit: 1514 x 1686 km, 47.2° (Epoch: 14 September)

Event Time Altitude Azimuth Distance (km) Brightness Sun altitude
Rises 20:40:07 0° 287° (WNW) 4,743 12.5 -24.1°
Reaches altitude 10° 20:43:09 10° 286° (WNW) 3,780 11.8 -24.5°
Maximum altitude 20:52:49 83° 201° (SSW) 1,636 9.0 -25.6°
Enters shadow 20:57:01 41° 119° (ESE) 2,229 9.3 -26.1°
Drops below altitude 10° 21:02:50 10° 115° (ESE) 3,907 - -26.7°
Sets 21:06:00 0° 115° (ESE) 4,908 - -27.0°
